Flag for U.S.A. Weather past 2 weeks in Pasadena, Texas, U.S.A.

Now
82 °F

Passing clouds.


Feels Like: 91 °F
Forecast: 80 / 91 °F
Wind: No wind

Location: Houston / Ellington

Current Time: Aug 20, 2014 at 12:19:51 AM

Latest Report: Aug 19, 2014 at 11:50 PM


Visibility: 10 mi

Pressure: 29.95 "Hg

Humidity: 84%

Dew point: 77 °F

Location of PasadenaLocation

Historic Weather in Pasadena — Graph

°F

Pasadena temperature yesterday

Maximum temperature yesterday: 91 °F (at 10:50 AM)
Minimum temperature yesterday: 79 °F (at 3:50 AM)
Average temperature yesterday: 85 °F

Past Weeks' High & Low Weather Summary

 TemperatureHumidityPressure
High97 °F (Aug 16, 1:50 PM)94% (Aug 8, 4:50 AM)30.08 "Hg (Aug 8, 4:50 AM)
Low77 °F (Aug 12, 12:50 AM)39% (Aug 12, 6:50 PM)29.90 "Hg (Aug 7, 7:50 PM)
Average85 °F73%29.99 "Hg
* Reported Aug 4 10:50 PM — Aug 19 10:50 PM, Pasadena, Weather by CustomWeather, © 2014

Note: Actual official high and low records may vary slightly from our data, if they occured in-between our weather recording intervals... More about our weather records

Advertising

Pasadena weather history for previous 24 hours

 ConditionsComfort  
Time TempWeatherWind HumidityBarometerVisibility
10:50 PM
Aug 19
82 °FPassing clouds.3 mph84%29.95 "Hg10 mi
8:50 PM84 °FPartly sunny.6 mph79%29.93 "Hg10 mi
7:50 PM86 °FPartly sunny.7 mph75%29.92 "Hg10 mi
6:50 PM88 °FPartly sunny.8 mph66%29.91 "Hg7 mi
5:50 PM90 °FPartly sunny.10 mph59%29.92 "Hg7 mi
4:50 PM88 °FPartly sunny.14 mph75%29.91 "Hg7 mi
3:50 PM88 °FBroken clouds.12 mph75%29.92 "Hg7 mi
2:50 PM84 °FPartly sunny.6 mph79%29.94 "Hg7 mi
1:50 PM84 °FThunderstorms. Partly sunny.7 mph79%29.96 "Hg7 mi
12:50 PM88 °FThunderstorms. Partly sunny.5 mph70%29.96 "Hg6 mi
11:50 AM91 °FPartly sunny.14 mph63%29.98 "Hg10 mi
10:50 AM91 °FPartly sunny.9 mph63%29.99 "Hg10 mi
9:50 AM90 °FBroken clouds.9 mph67%29.97 "Hg8 mi
8:50 AM84 °FPartly sunny.8 mph74%29.98 "Hg7 mi
7:50 AM81 °FScattered clouds.3 mph84%29.97 "Hg8 mi
6:50 AM79 °FPassing clouds.1 mph89%29.95 "Hg10 mi
5:50 AM79 °FPassing clouds.No wind89%29.94 "Hg10 mi
4:50 AM79 °FPassing clouds.3 mph89%29.92 "Hg10 mi
3:50 AM79 °FPassing clouds.3 mph89%29.93 "Hg10 mi
1:50 AM81 °FPassing clouds.2 mph89%29.95 "Hg10 mi
12:50 AM81 °FPassing clouds.No wind89%29.95 "Hg10 mi
Weather by CustomWeather, © 2014

See weather overviewHow to use our weather pages